Location: Finnegan
(51.1333°N, 112.0833°W)
Time: 20:24:37
(UTC+00:00)

Envisat - Pass Details

Date: 09 December 2021
Orbit: 764 x 766 km, 98.2° (Epoch: 26 January)

Event Time Altitude Azimuth Distance (km) Brightness Sun altitude
Rises 12:24:42 0° 16° (NNE) 3,247 6.4 -26.3°
Reaches altitude 10° 12:27:03 10° 19° (NNE) 2,316 5.6 -25.9°
Maximum altitude 12:32:07 65° 102° (ESE) 841 3.3 -25.1°
Drops below altitude 10° 12:37:09 10° 184° (S) 2,298 5.5 -24.3°
Sets 12:39:28 0° 188° (S) 3,219 6.2 -24.0°
